Location: ??????
(41.3164°N, 22.6615°E)
Time: 22:57:22
(UTC+00:00)

GPS 2-04 Rocket1 - Pass Details

Date: 16 October 2021
Orbit: 412 x 536 km, 35.6° (Epoch: 05 December)

Event Time Altitude Azimuth Distance (km) Brightness Sun altitude
Rises 16:27:50 0° 262° (W) 2,562 8.8 -8.4°
Reaches altitude 10° 16:30:15 10° 252° (WSW) 1,655 6.7 -8.9°
Maximum altitude 16:33:34 29° 191° (S) 884 4.0 -9.5°
Drops below altitude 10° 16:36:44 10° 129° (SE) 1,585 4.7 -10.1°
Enters shadow 16:37:05 - 127° (SE) 1,704 4.9 -10.2°
